星链-3998 (STARLINK-3998 )

导读 | 星芒AI

STARLINK-3998 是由 SpaceX 开发的星链(Starlink)卫星网络中的一颗低轨道通信卫星。该卫星属于星链计划的第三批部署任务,旨在为全球用户提供高速互联网服务。它运行在约 550 公里的近地轨道上,采用先进的通信技术,支持宽带数据传输。STARLINK-3998 与其他星链卫星协同工作,提升网络覆盖和连接稳定性,尤其在偏远地区发挥重要作用。该卫星于 2021 年发射,是 SpaceX 打造全球卫星互联网系统的重要组成部分。

基本信息
目录编号:
52610
目录名称:
STARLINK-3998
国际标识:
2022-052N
轨道中心:
EARTH
卫星名称:
星链-3998
卫星全名:
星链-3998 (STARLINK-3998 )
卫星状态:
在轨 (已飞行1271 天)
发射日期:
2022-05-14 UTC
国别 :
美国 (US)
星等 :
--
轨道信息
数据来源 国际轨道数据 AOE轨道数据
星历时间 2025-11-05T02:11:18+0800
7小时前
查看轨道信息
2025-11-03T17:00:00+0800
1天前
查看轨道信息
半长轴 6917.888km 6917.888km
偏心率 0.0001415 0.0000983
轨道倾角 53.215° 53.214°
近地点辐角 90.909° 130.798°
升交点赤经 124.963° 131.173°
平近点角 269.207° 273.821°
近地点 538.774km 539.072km
远地点 540.732km 540.434km
周期 95.438分钟 95.438分钟
每日圈数 15.088377 15.088377
详细信息
固有亮度:
5
最大亮度:
2.5
卫星平台:
Starlink v1.5
覆盖范围:
全球
运营商:
太空探索技术公司
运营商所在国:
美国
制造商(研发单位):
太空探索技术公司
制造商所在国:
美国
使用方式:
暂无
卫星简介
星链(Starlink)计划是由太空探索技术公司(SpaceX)提出的一个巨型低轨卫星互联网星座项目,计划在2019年至2024年间在太空搭建由约1.2万颗卫星组成的“星链”网络,其中1584颗将部署在地球上空550千米处的近地轨道,并从2020年开始工作。该卫星仍在工作。
2D轨道图
3D轨道图
轨道高度分析图
轨道倾角分析图
轨道综合分析图
查看轨道综合分析图